Showing default

ASTRA 2G, 40364

Orbit data source: Space-Track

ASTRA 2G, 40364 is a payload satellite owned by SES (LU) in GEO that was launched on Sat, 27 Dec 2014 UTC via a PROTON-M/BRIZ-M launch vehicle from the Tyuratam Missile And Space Complex (TTMTR). Payload-class satellites include a variety of spacecraft equipped with specific instruments for various scientific and technological missions. These include communications satellites like Starlink; space stations such as the ISS; scientific satellites like the Hubble; Earth observation satellites from companies like Planet Labs, Umbra, and HawkEye 360; GPS; miniature CubeSats for education and research; and military/defense satellites.

Not visible in the next 10 days
Identifier
40364, 2014-089A
Orbit
GEO
Last TLE update
6 hours ago
Origin
Manufacturer
Airbus/Toulouse
Mission
Operational Commercial Communications
Bus & Motor
EUROSTAR 3000, R-4D?
Mass
6,002 kg wet, ~3,000 kg dry
Launch date (UTC)
2014-12-27 (11 years ago)
Launch vehicle
PROTON-M/BRIZ-M
Launch site
Tyuratam Missile And Space Complex (TTMTR)
Object type
Payload
Rocket body
Debris
Shape & HBR
Box + 2 Pan, 39.8 m
Radar Cross Section
50.725 m², Large (>1 m²)

Expand to show TLE details & history

TLE from 6 hours ago
0 ASTRA 2G
1 40364U 14089A   25191.92423759  .00000161  00000-0  00000-0 0  9996
2 40364   0.0440  12.1689 0004446  69.7305 208.1177  1.00273694 38540
Epoch: 2025-07-10T22:10Z
TLE epoch observation values (Epoch: 2025-07-10T22:10:54.127Z)
Latitude
-0.06945°
Longitude
28.18799°
Altitude
35,802.188 km
Speed
3.074 km/s
True Right ascension
19h 19m 59s
True Declination
0° 04' 10"
Sunlit
Object was in daylight at epoch
Visualization orbit readout
Latitude
0.00471°
Longitude
120.08624°
Altitude
35,776.175 km
Speed
3.075 km/s
Apparent Right ascension
01h 45m 30s
Apparent Declination
-5° 05' 29"
Sunlit
Object is in daylight
Visualization observer readout
Local Sidereal Time
16:34:25
Azimuth
58.818° ENE
Elevation
-38.506°
Doppler factor
1
Orbital elements
Apogee altitude
35,805.877 km
Perigee altitude
35,768.384 km
Semi-major axis
42,165.267 km
Eccentricity
0.00044
Inclination
0.044°
RAAN
12.1689°
Arg. of periapsis
69.7305°
True anomaly
Unknown
Mean anomaly
208.1177°
Eccentric anomaly
Unknown
Mean motion
0.25067 °/min
Orbital period
1,436.12 mins
BSTAR
0
Loading historical data...
40364 neighbors
Loading maneuver chart data...
Loading SW <> Apogee altitude chart data...
Loading historical data...
Loading historical data...
Loading historical data...
Loading historical data...
Loading historical data...
Loading historical data...
Loading historical data...
Other satellites on launch #89 in the year 2014 (2014-12-27 UTC)

ASTRA 2G Visibility

Observer location: undefined°, undefined°

ASTRA 2G is likely not visible in the next few days
Span
Click to sort rows by Start time (UTC) header in descending order
Start Az.
Max El. time (UTC)
Max El. Az.
Max El.
End time (UTC)
End Az.
|